DateTimeUTC,F1_A11,F1_S11,BsB_S11,BsG_S11,BsR_S11,BbsB_S11,BbsG_S11,BbsR_S11,BaB_A11,BaG_A11,BaR_A11,Tu_S11,T_S11,Uu_S11,U_S11,P_S11,T1_A11
2021-05-26T06:00:00Z,00000200,20000000,,,,,,,-000.18,-000.08,-000.04,16.7,23.4,07.0,04.6,0671.3,30.8
2021-05-26T06:01:00Z,00000200,20000000,,,,,,,0000.22,-000.08,-000.34,16.7,23.4,06.8,04.5,0671.3,30.8
2021-05-26T06:02:00Z,00000200,20000000,,,,,,,0000.21,-000.02,0000.39,16.7,23.5,06.7,04.4,0671.3,30.8
2021-05-26T06:03:00Z,00000200,60000000,,,,,,,-000.02,0000.25,0000.15,16.7,23.5,06.7,04.4,0671.3,30.8
2021-05-26T06:04:00Z,00000200,40000000,0000.06,0000.49,0000.09,-000.60,0000.24,-000.14,-000.07,0000.14,0000.19,16.9,23.3,06.8,04.6,0672.4,30.8
2021-05-26T06:05:00Z,00000200,00000000,0000.50,0000.49,0000.37,0000.03,0000.19,0000.06,0000.10,0000.32,-000.00,17.0,23.3,06.9,04.6,0672.5,30.8
2021-05-26T06:06:00Z,00000200,00000000,0000.73,0000.70,0000.02,0000.68,0000.15,-000.14,-000.12,-000.03,0000.19,17.0,23.3,07.0,04.7,0672.4,30.8
2021-05-26T06:07:00Z,00000200,00000000,0000.45,0000.50,0000.05,0000.13,0000.27,0000.04,0000.53,0000.01,0000.20,17.0,23.3,07.0,04.7,0672.5,30.8
2021-05-26T06:08:00Z,00000200,00000000,0000.33,0000.86,0000.30,0000.45,0000.41,0000.11,-000.05,0000.12,0000.17,17.0,23.2,07.0,04.7,0672.6,30.8
2021-05-26T06:09:00Z,00000200,00000000,0000.59,0000.31,0000.48,0000.36,0000.10,0000.23,0000.15,0000.01,0000.25,17.0,23.2,07.0,04.8,0672.6,30.8
2021-05-26T06:10:00Z,00000200,00000000,0000.54,0000.30,0000.04,0000.30,0000.43,-000.13,0000.05,-000.01,-000.23,16.9,23.2,07.0,04.8,0672.5,30.8
2021-05-26T06:11:00Z,00000200,00000000,0000.16,0000.45,0000.36,-000.42,0000.16,0000.17,0000.17,0000.25,0000.33,16.9,23.2,07.0,04.7,0672.6,30.8
2021-05-26T06:12:00Z,00000200,00000000,0000.42,0000.53,-000.07,0000.43,0000.09,-000.13,-000.20,0000.15,-000.06,16.9,23.2,06.9,04.7,0672.6,30.8
2021-05-26T06:13:00Z,00000200,00000000,0000.73,0000.47,0000.38,0000.24,0000.48,0000.14,-000.11,-000.39,-000.10,16.9,23.2,07.0,04.7,0672.8,30.8
2021-05-26T06:14:00Z,00000200,00000000,0000.44,0000.33,0000.36,-000.06,0000.33,0000.00,-000.04,0000.44,0000.01,16.9,23.2,06.9,04.6,0672.5,30.8
2021-05-26T06:15:00Z,00000200,00000000,0000.84,0000.73,0000.28,-000.05,0000.12,0000.16,0000.64,0000.00,0000.35,16.9,23.2,06.8,04.6,0672.6,30.8
2021-05-26T06:16:00Z,00000200,00000000,0000.51,0000.63,0000.16,0000.11,0000.07,0000.11,-000.24,0000.39,0000.11,16.9,23.2,06.8,04.6,0672.5,30.8
2021-05-26T06:17:00Z,00000200,00000000,0000.01,0000.60,0000.18,0000.34,0000.14,0000.06,0000.51,-000.42,-000.03,16.9,23.2,06.8,04.6,0672.8,30.8
2021-05-26T06:18:00Z,00000200,00000000,0001.20,0000.54,0000.58,0000.34,0000.53,0000.22,-000.21,0000.66,0000.42,17.0,23.2,06.7,04.6,0672.7,30.8
2021-05-26T06:19:00Z,00000200,00000000,0000.11,0000.75,0000.47,-000.43,0000.15,0000.22,0000.45,0000.22,0000.23,17.0,23.2,06.8,04.6,0672.7,30.8
2021-05-26T06:20:00Z,00000200,00000000,0000.22,0000.54,-000.01,-000.18,0000.12,0000.13,0000.22,-000.06,-000.14,17.0,23.2,06.8,04.6,0672.7,30.8
2021-05-26T06:21:00Z,00000200,00000000,0000.82,0000.49,0000.26,0000.11,0000.10,0000.04,-000.13,0000.10,0000.33,17.0,23.2,06.7,04.6,0672.6,30.8
2021-05-26T06:22:00Z,00000200,00000000,0000.40,0000.45,0000.24,-000.08,0000.16,0000.18,0000.26,0000.01,0000.31,17.0,23.2,06.8,04.6,0672.5,30.8
2021-05-26T06:23:00Z,00000200,00000000,0000.11,0000.73,0000.11,0000.15,0000.15,0000.08,0000.03,0000.41,-000.03,16.9,23.2,06.8,04.6,0672.4,30.8
2021-05-26T06:24:00Z,00000200,00000000,0000.56,0000.33,0000.30,0000.27,0000.21,0000.02,-000.09,0000.04,0000.08,16.9,23.2,06.9,04.7,0672.6,30.8
2021-05-26T06:25:00Z,00000200,00000000,0000.39,0000.80,0000.06,-000.07,0000.13,0000.05,0000.22,0000.13,0000.66,16.9,23.2,07.1,04.8,0672.7,30.8
2021-05-26T06:26:00Z,00000200,00000000,0001.14,0000.48,0000.49,-000.02,0000.24,0000.16,0000.42,0000.26,0000.18,16.9,23.2,07.0,04.7,0672.6,30.8
2021-05-26T06:27:00Z,00000200,00000000,0000.33,0000.54,0000.56,0000.18,0000.31,0000.10,-000.05,0000.15,0000.05,16.9,23.1,07.0,04.8,0672.6,30.8
2021-05-26T06:28:00Z,00000200,00000000,0000.69,0000.36,0000.26,0000.08,0000.34,0000.14,0000.42,0000.48,-000.30,16.8,23.1,06.9,04.7,0672.6,30.8
2021-05-26T06:29:00Z,00000200,00000000,0000.63,0000.69,0000.42,0000.34,0000.18,0000.09,-000.04,-000.01,0000.47,16.8,23.1,07.0,04.7,0672.6,30.8
2021-05-26T06:30:00Z,00000200,00000000,-000.22,0000.81,0000.41,0000.44,0000.10,-000.11,0000.40,-000.13,0000.39,16.8,23.1,07.0,04.7,0672.5,30.8
2021-05-26T06:31:00Z,00000200,00000000,0000.31,0000.55,0000.43,-000.17,0000.23,0000.08,-000.02,0000.22,-000.01,16.9,23.1,07.0,04.8,0672.7,30.8
2021-05-26T06:32:00Z,00000200,00000000,0001.02,0000.50,0000.35,0000.15,0000.21,0000.15,-000.10,0000.23,0000.33,16.9,23.2,06.9,04.7,0672.7,30.8
2021-05-26T06:33:00Z,00000200,00000000,0000.52,0000.62,0000.26,-000.31,0000.25,-000.05,0000.46,0000.12,-000.24,17.0,23.2,07.0,04.8,0672.8,30.8
2021-05-26T06:34:00Z,00000200,00000000,-000.18,0000.49,0000.23,-000.02,0000.16,0000.10,0000.05,0000.13,0000.31,17.0,23.2,07.0,04.7,0672.8,30.8
2021-05-26T06:35:00Z,00000200,00000000,0001.42,0000.56,0000.36,-000.04,0000.26,0000.20,-000.04,-000.06,0000.36,17.0,23.2,07.0,04.8,0672.8,30.8
2021-05-26T06:36:00Z,00000200,00000000,0000.38,0000.57,0000.17,-000.17,0000.14,0000.04,0000.07,0000.29,-000.00,17.0,23.2,07.0,04.7,0672.9,30.8
2021-05-26T06:37:00Z,00000200,00000000,0000.60,0000.45,0000.43,-000.35,0000.21,0000.34,0000.15,0000.69,0000.29,17.0,23.2,06.9,04.7,0672.7,30.8
2021-05-26T06:38:00Z,00000200,00000000,0000.89,0000.71,0000.29,0000.33,0000.19,0000.19,0000.51,0000.06,0000.32,16.9,23.2,07.0,04.8,0672.8,30.8
2021-05-26T06:39:00Z,00000200,00000000,0000.73,0000.44,0000.51,0000.31,-000.10,0000.16,0000.34,0000.41,0000.26,16.9,23.2,07.2,04.9,0672.8,30.8
2021-05-26T06:40:00Z,00000200,00000000,0001.14,0000.55,0000.51,-000.02,0000.40,0000.19,0000.38,-000.07,0000.20,16.9,23.2,07.4,05.0,0672.8,30.8
2021-05-26T06:41:00Z,00000200,00000000,0000.22,0000.78,0000.57,0000.06,0000.29,0000.16,-000.13,0000.39,0000.48,16.9,23.1,07.3,05.0,0672.8,30.8
2021-05-26T06:42:00Z,00000200,00000000,0001.21,0000.64,0000.53,0000.12,0000.19,0000.30,0000.86,0000.28,0000.04,16.9,23.1,07.4,05.0,0672.6,30.8
2021-05-26T06:43:00Z,00000200,00000000,0000.39,0000.83,0000.40,0000.02,0000.48,0000.25,-000.04,0000.26,0000.69,16.9,23.1,07.4,05.0,0672.7,30.8
2021-05-26T06:44:00Z,00000200,00000000,0001.48,0000.52,0000.37,0000.37,0000.08,0000.16,0000.09,0000.30,-000.11,16.9,23.1,07.4,05.0,0672.8,30.8
2021-05-26T06:45:00Z,00000200,00000000,0000.55,0000.47,0000.41,-000.03,0000.31,0000.05,0000.26,-000.36,0000.03,16.9,23.1,07.4,05.0,0673.0,30.8
2021-05-26T06:46:00Z,00000200,00000000,0001.12,0000.79,0000.28,0000.25,0000.52,-000.15,-000.20,0000.40,0000.14,16.9,23.1,07.4,05.1,0672.7,30.8
2021-05-26T06:47:00Z,00000200,00000000,0000.94,0000.50,0000.38,0000.40,0000.11,0000.03,0000.35,0000.25,0000.20,17.0,23.2,07.5,05.1,0673.0,30.8
2021-05-26T06:48:00Z,00000200,00000000,0000.65,0000.66,0000.32,-000.36,0000.18,-000.03,-000.20,0000.04,0000.27,17.0,23.2,07.5,05.1,0672.9,30.8
2021-05-26T06:49:00Z,00000200,00000000,0000.68,0000.57,0000.29,0000.19,0000.13,0000.37,0000.32,0000.18,0000.25,17.0,23.2,07.4,05.1,0672.9,30.8
2021-05-26T06:50:00Z,00000200,00000000,0000.69,0000.51,0000.73,0000.71,0000.33,0000.31,0000.04,-000.03,0000.31,17.0,23.1,07.4,05.1,0672.8,30.8
2021-05-26T06:51:00Z,00000200,00000000,0000.27,0000.39,0000.36,0000.17,0000.58,-000.00,0000.33,0000.42,0000.14,17.0,23.1,07.4,05.0,0673.0,30.8
2021-05-26T06:52:00Z,00000200,00000000,0000.68,0000.37,0000.43,0000.09,0000.28,0000.17,0000.32,0000.35,-000.10,17.0,23.1,07.4,05.1,0672.8,30.8
2021-05-26T06:53:00Z,00000200,00000000,0000.81,0000.53,0000.82,0000.81,0000.21,0000.11,-000.06,0000.10,0000.59,16.9,23.1,07.5,05.1,0672.9,30.8
2021-05-26T06:54:00Z,00000200,00000000,0000.76,0000.58,0000.11,0000.18,0000.16,-000.05,-000.30,-000.15,0000.09,16.9,23.1,07.5,05.1,0672.9,30.8
2021-05-26T06:55:00Z,00000200,00000000,0000.73,0000.76,0000.47,0000.53,0000.12,0000.34,0000.44,-000.01,-000.00,16.9,23.1,07.5,05.1,0672.7,30.8
2021-05-26T06:56:00Z,00000200,00000000,0000.68,0000.69,0000.06,-000.02,0000.17,-000.04,0000.47,0000.61,0000.27,16.9,23.1,07.5,05.1,0672.7,30.8
2021-05-26T06:57:00Z,00000200,40000000,,,,,,,-000.44,-000.22,-000.19,16.9,23.2,08.0,05.4,0672.9,30.8
2021-05-26T06:58:00Z,00000200,60000000,,,,,,,0000.31,0000.12,0000.34,16.7,23.2,07.3,04.9,0671.7,30.8
2021-05-26T06:59:00Z,00000200,20000000,,,,,,,0000.20,0000.25,-000.28,16.6,23.3,07.3,04.8,0671.7,30.8
